BAW8H EGLC-EGPF

Flight info

Callsign BAW8H
Flight time 0h 57m
Altitude 32000
Route BPK UN601 RIBEL DCT ASLIB
Aircraft A319/M-SDE3FGHIRWY/LB1

Departure

Time 2026-05-05 11:23
Airport London City Airport (EGLC)

Arrival

Time 2026-05-05 12:21
Airport Glasgow Airport (EGPF)
Time Latitude Longitude Altitude Speed Heading
2026-05-05 11:11 51.50449 0.04502 27 ft 0 kts 316°
2026-05-05 11:21 51.50458 0.04488 29 ft 5 kts 315°
2026-05-05 11:21 51.50518 0.04444 27 ft 9 kts 359°
2026-05-05 11:21 51.50548 0.04467 29 ft 4 kts 91°
2026-05-05 11:21 51.50554 0.04522 25 ft 0 kts 91°
2026-05-05 11:22 51.50554 0.04527 25 ft 0 kts 91°
2026-05-05 11:22 51.50548 0.04673 26 ft 48 kts 94°
2026-05-05 11:23 51.50520 0.05660 27 ft 127 kts 93°
2026-05-05 11:23 51.50449 0.07222 564 ft 139 kts 90°
2026-05-05 11:23 51.50383 0.08758 1412 ft 139 kts 86°
2026-05-05 11:23 51.50425 0.10314 2031 ft 142 kts 70°
2026-05-05 11:24 51.51033 0.11646 2408 ft 162 kts 36°
2026-05-05 11:24 51.52172 0.12211 2787 ft 188 kts 360°
2026-05-05 11:24 51.53452 0.11466 2980 ft 203 kts 331°
2026-05-05 11:24 51.54617 0.10206 2976 ft 201 kts 328°
2026-05-05 11:25 51.55764 0.08916 2975 ft 202 kts 328°
2026-05-05 11:25 51.56941 0.07591 3538 ft 207 kts 328°
2026-05-05 11:25 51.58121 0.06266 4354 ft 208 kts 328°
2026-05-05 11:25 51.59384 0.04933 4876 ft 225 kts 330°
2026-05-05 11:26 51.60763 0.03551 5386 ft 247 kts 331°
2026-05-05 11:26 51.62299 0.02033 6065 ft 266 kts 330°
2026-05-05 11:26 51.63902 0.00441 7014 ft 273 kts 329°
2026-05-05 11:26 51.65525 -0.01181 8046 ft 276 kts 329°
2026-05-05 11:27 51.67173 -0.02833 9054 ft 280 kts 329°
2026-05-05 11:27 51.68837 -0.04504 10051 ft 284 kts 328°
2026-05-05 11:27 51.70529 -0.06204 10905 ft 289 kts 328°
2026-05-05 11:27 51.72246 -0.07932 11810 ft 292 kts 328°
2026-05-05 11:28 51.73986 -0.09680 12693 ft 297 kts 329°
2026-05-05 11:28 51.75752 -0.11446 13533 ft 303 kts 329°
2026-05-05 11:28 51.77621 -0.13249 13892 ft 325 kts 330°
2026-05-05 11:28 51.79617 -0.15134 13996 ft 337 kts 330°
2026-05-05 11:29 51.81671 -0.17065 14553 ft 344 kts 330°
2026-05-05 11:29 51.83750 -0.19023 15265 ft 348 kts 329°
2026-05-05 11:29 51.85849 -0.21013 15970 ft 352 kts 329°
2026-05-05 11:29 51.87972 -0.23036 16676 ft 356 kts 329°
2026-05-05 11:30 51.90120 -0.25085 17383 ft 361 kts 329°
2026-05-05 11:30 51.92296 -0.27164 18085 ft 365 kts 329°
2026-05-05 11:30 51.94466 -0.29245 18718 ft 369 kts 328°
2026-05-05 11:30 51.96688 -0.31382 19294 ft 374 kts 327°
2026-05-05 11:31 51.98940 -0.33545 19915 ft 378 kts 328°
2026-05-05 11:31 52.01212 -0.35724 20539 ft 382 kts 327°
2026-05-05 11:31 52.03509 -0.37933 21194 ft 385 kts 327°
2026-05-05 11:31 52.05822 -0.40165 21811 ft 389 kts 327°
2026-05-05 11:32 52.08155 -0.42424 22422 ft 392 kts 327°
2026-05-05 11:32 52.10516 -0.44713 23023 ft 396 kts 327°
2026-05-05 11:32 52.12897 -0.47022 23610 ft 400 kts 327°
2026-05-05 11:32 52.15298 -0.49350 24100 ft 404 kts 327°
2026-05-05 11:33 52.17723 -0.51700 24589 ft 407 kts 327°
2026-05-05 11:33 52.20173 -0.54075 25079 ft 411 kts 327°
2026-05-05 11:33 52.22641 -0.56473 25571 ft 414 kts 327°
2026-05-05 11:33 52.25122 -0.58885 26057 ft 417 kts 327°
2026-05-05 11:34 52.27629 -0.61320 26535 ft 420 kts 327°
2026-05-05 11:34 52.30147 -0.63765 27063 ft 422 kts 327°
2026-05-05 11:34 52.32640 -0.66198 27570 ft 424 kts 326°
2026-05-05 11:34 52.35182 -0.68692 28068 ft 427 kts 326°
2026-05-05 11:35 52.37739 -0.71204 28553 ft 430 kts 326°
2026-05-05 11:35 52.40309 -0.73731 29029 ft 433 kts 326°
2026-05-05 11:35 52.42904 -0.76284 29494 ft 436 kts 326°
2026-05-05 11:35 52.45518 -0.78856 29957 ft 439 kts 326°
2026-05-05 11:36 52.48153 -0.81449 30348 ft 442 kts 326°
2026-05-05 11:36 52.50799 -0.84061 30724 ft 445 kts 326°
2026-05-05 11:36 52.53459 -0.86695 31111 ft 447 kts 327°
2026-05-05 11:36 52.56132 -0.89339 31501 ft 449 kts 327°
2026-05-05 11:37 52.58829 -0.91934 31852 ft 451 kts 328°
2026-05-05 11:37 52.61526 -0.94450 31984 ft 448 kts 329°
2026-05-05 11:37 52.64204 -0.96898 32007 ft 434 kts 329°
2026-05-05 11:37 52.66810 -0.99261 32009 ft 421 kts 329°
2026-05-05 11:38 52.69359 -1.01584 32018 ft 416 kts 330°
2026-05-05 11:38 52.74390 -1.06239 32020 ft 413 kts 329°
2026-05-05 11:39 52.79395 -1.10919 32025 ft 414 kts 330°
2026-05-05 11:39 52.84403 -1.15625 32029 ft 414 kts 330°
2026-05-05 11:40 52.89398 -1.20310 32023 ft 412 kts 330°
2026-05-05 11:40 52.94393 -1.24988 32016 ft 413 kts 330°
2026-05-05 11:41 52.99386 -1.29696 32020 ft 412 kts 330°
2026-05-05 11:41 53.04367 -1.34409 32022 ft 412 kts 330°
2026-05-05 11:42 53.09342 -1.39123 32022 ft 411 kts 330°
2026-05-05 11:42 53.14300 -1.43838 32023 ft 410 kts 330°
2026-05-05 11:43 53.19258 -1.48573 32019 ft 410 kts 330°
2026-05-05 11:43 53.24176 -1.53277 32020 ft 410 kts 330°
2026-05-05 11:44 53.29121 -1.58005 32036 ft 409 kts 329°
2026-05-05 11:44 53.34042 -1.62731 32036 ft 408 kts 329°
2026-05-05 11:45 53.38958 -1.67460 32036 ft 407 kts 329°
2026-05-05 11:45 53.43865 -1.72206 32034 ft 407 kts 329°
2026-05-05 11:46 53.48784 -1.76958 32032 ft 407 kts 329°
2026-05-05 11:46 53.53686 -1.81719 32031 ft 407 kts 329°
2026-05-05 11:47 53.58587 -1.86502 32029 ft 407 kts 328°
2026-05-05 11:47 53.63486 -1.91288 32032 ft 407 kts 328°
2026-05-05 11:48 53.70826 -1.98477 32031 ft 407 kts 328°
2026-05-05 11:48 53.75689 -2.03261 32039 ft 406 kts 328°
2026-05-05 11:49 53.80568 -2.08062 32041 ft 405 kts 328°
2026-05-05 11:49 53.85431 -2.12870 32044 ft 404 kts 328°
2026-05-05 11:50 53.90285 -2.17683 32041 ft 404 kts 328°
2026-05-05 11:50 53.95132 -2.22497 32037 ft 404 kts 328°
2026-05-05 11:51 53.99957 -2.27312 32049 ft 404 kts 327°
2026-05-05 11:51 54.04826 -2.32078 32046 ft 403 kts 329°
2026-05-05 11:52 54.09754 -2.36640 32041 ft 403 kts 329°
2026-05-05 11:52 54.14691 -2.41198 32035 ft 403 kts 329°
2026-05-05 11:53 54.19605 -2.45801 32034 ft 403 kts 329°
2026-05-05 11:53 54.24479 -2.50411 32048 ft 402 kts 328°
2026-05-05 11:54 54.29373 -2.55050 32051 ft 402 kts 328°
2026-05-05 11:54 54.34265 -2.59684 32045 ft 401 kts 328°
2026-05-05 11:55 54.39147 -2.64332 32043 ft 401 kts 328°
2026-05-05 11:55 54.44019 -2.68986 32038 ft 401 kts 328°
2026-05-05 11:56 54.48897 -2.73651 31917 ft 401 kts 327°
2026-05-05 11:56 54.51324 -2.75977 31519 ft 397 kts 327°
2026-05-05 11:56 54.53732 -2.78291 31062 ft 395 kts 327°
2026-05-05 11:57 54.56127 -2.80597 30624 ft 392 kts 327°
2026-05-05 11:57 54.58505 -2.82883 30192 ft 390 kts 327°
2026-05-05 11:57 54.60837 -2.85124 29726 ft 387 kts 327°
2026-05-05 11:57 54.63179 -2.87378 29312 ft 383 kts 327°
2026-05-05 11:58 54.65495 -2.89616 28906 ft 380 kts 327°
2026-05-05 11:58 54.67789 -2.91837 28508 ft 376 kts 327°
2026-05-05 11:58 54.70062 -2.94040 28115 ft 374 kts 327°
2026-05-05 11:58 54.72325 -2.96232 27749 ft 371 kts 327°
2026-05-05 11:59 54.74569 -2.98404 27350 ft 368 kts 327°
2026-05-05 11:59 54.76797 -3.00567 26967 ft 365 kts 327°
2026-05-05 11:59 54.78999 -3.02716 26598 ft 362 kts 326°
2026-05-05 11:59 54.81179 -3.04852 26237 ft 358 kts 326°
2026-05-05 12:00 54.83343 -3.06967 25879 ft 359 kts 327°
2026-05-05 12:00 54.85538 -3.09113 25531 ft 363 kts 327°
2026-05-05 12:00 54.87739 -3.11273 25185 ft 363 kts 327°
2026-05-05 12:00 54.89934 -3.13426 24847 ft 361 kts 327°
2026-05-05 12:01 54.92121 -3.15572 24477 ft 360 kts 327°
2026-05-05 12:01 54.94268 -3.17680 24127 ft 358 kts 327°
2026-05-05 12:01 54.96426 -3.19804 23784 ft 356 kts 327°
2026-05-05 12:01 54.98575 -3.21921 23414 ft 353 kts 327°
2026-05-05 12:02 55.00706 -3.24021 23055 ft 351 kts 327°
2026-05-05 12:02 55.02824 -3.26111 22721 ft 349 kts 327°
2026-05-05 12:02 55.04931 -3.28194 22385 ft 347 kts 327°
2026-05-05 12:02 55.07031 -3.30273 22051 ft 345 kts 327°
2026-05-05 12:03 55.09113 -3.32334 21718 ft 344 kts 327°
2026-05-05 12:03 55.11178 -3.34380 21400 ft 339 kts 327°
2026-05-05 12:03 55.13215 -3.36404 21062 ft 335 kts 327°
2026-05-05 12:03 55.15246 -3.38429 20735 ft 337 kts 327°
2026-05-05 12:04 55.17279 -3.40462 20406 ft 336 kts 327°
2026-05-05 12:04 55.19300 -3.42488 20102 ft 334 kts 327°
2026-05-05 12:04 55.21313 -3.44500 19900 ft 332 kts 327°
2026-05-05 12:04 55.23350 -3.46542 19051 ft 343 kts 328°
2026-05-05 12:05 55.25408 -3.48609 18441 ft 346 kts 328°
2026-05-05 12:05 55.27497 -3.50703 17843 ft 345 kts 328°
2026-05-05 12:05 55.29570 -3.52773 17308 ft 341 kts 328°
2026-05-05 12:05 55.31618 -3.54820 16823 ft 337 kts 328°
2026-05-05 12:06 55.33610 -3.56958 16147 ft 335 kts 320°
2026-05-05 12:06 55.35089 -3.60019 15839 ft 323 kts 301°
2026-05-05 12:06 55.36230 -3.63325 15683 ft 308 kts 300°
2026-05-05 12:06 55.37299 -3.66486 15426 ft 296 kts 300°
2026-05-05 12:07 55.38336 -3.69569 14982 ft 291 kts 300°
2026-05-05 12:07 55.39357 -3.72616 14492 ft 288 kts 300°
2026-05-05 12:07 55.40366 -3.75641 14029 ft 285 kts 300°
2026-05-05 12:07 55.41363 -3.78640 13519 ft 283 kts 300°
2026-05-05 12:08 55.42350 -3.81625 12990 ft 281 kts 300°
2026-05-05 12:08 55.43315 -3.84553 12480 ft 280 kts 300°
2026-05-05 12:08 55.44300 -3.87547 11966 ft 279 kts 300°
2026-05-05 12:08 55.45253 -3.90463 11578 ft 278 kts 300°
2026-05-05 12:09 55.46208 -3.93410 11227 ft 276 kts 299°
2026-05-05 12:09 55.47155 -3.96341 10891 ft 274 kts 299°
2026-05-05 12:09 55.48094 -3.99248 10536 ft 272 kts 299°
2026-05-05 12:09 55.49026 -4.02148 10180 ft 271 kts 299°
2026-05-05 12:10 55.49952 -4.05042 9823 ft 270 kts 299°
2026-05-05 12:10 55.50871 -4.07931 9435 ft 269 kts 299°
2026-05-05 12:10 55.51781 -4.10815 9044 ft 269 kts 299°
2026-05-05 12:10 55.52684 -4.13703 8657 ft 268 kts 299°
2026-05-05 12:11 55.53278 -4.15611 8405 ft 267 kts 299°
2026-05-05 12:11 55.54170 -4.18495 8022 ft 267 kts 299°
2026-05-05 12:11 55.55053 -4.21371 7631 ft 267 kts 299°
2026-05-05 12:11 55.55927 -4.24252 7275 ft 266 kts 299°
2026-05-05 12:12 55.56793 -4.27135 6902 ft 265 kts 299°
2026-05-05 12:12 55.57654 -4.30021 6543 ft 265 kts 299°
2026-05-05 12:12 55.58509 -4.32910 6161 ft 265 kts 299°
2026-05-05 12:12 55.59360 -4.35802 5787 ft 265 kts 299°
2026-05-05 12:13 55.60208 -4.38685 5452 ft 264 kts 299°
2026-05-05 12:13 55.61051 -4.41564 5101 ft 263 kts 299°
2026-05-05 12:13 55.61889 -4.44443 4741 ft 263 kts 299°
2026-05-05 12:13 55.62725 -4.47311 4395 ft 262 kts 299°
2026-05-05 12:14 55.63552 -4.50168 4052 ft 260 kts 299°
2026-05-05 12:14 55.64374 -4.53014 3711 ft 258 kts 299°
2026-05-05 12:14 55.65188 -4.55830 3373 ft 256 kts 299°
2026-05-05 12:14 55.65997 -4.58634 3046 ft 255 kts 299°
2026-05-05 12:15 55.66804 -4.61416 2736 ft 253 kts 299°
2026-05-05 12:15 55.67743 -4.64015 2422 ft 249 kts 314°
2026-05-05 12:15 55.69050 -4.65919 2400 ft 245 kts 331°
2026-05-05 12:15 55.70556 -4.67009 2395 ft 225 kts 348°
2026-05-05 12:16 55.72034 -4.67290 2394 ft 204 kts
2026-05-05 12:16 55.73380 -4.66933 2400 ft 187 kts 17°
2026-05-05 12:16 55.74552 -4.66101 2397 ft 179 kts 28°
2026-05-05 12:16 55.75561 -4.64876 2398 ft 175 kts 40°
2026-05-05 12:17 55.76419 -4.63353 2407 ft 174 kts 45°
2026-05-05 12:17 55.77259 -4.61800 2407 ft 174 kts 46°
2026-05-05 12:17 55.78103 -4.60240 2384 ft 175 kts 45°
2026-05-05 12:17 55.78945 -4.58687 2351 ft 175 kts 45°
2026-05-05 12:18 55.79774 -4.57147 2197 ft 177 kts 45°
2026-05-05 12:18 55.80632 -4.55549 1814 ft 180 kts 45°
2026-05-05 12:18 55.81476 -4.53978 1509 ft 168 kts 44°
2026-05-05 12:18 55.82256 -4.52526 1264 ft 155 kts 44°
2026-05-05 12:19 55.82941 -4.51249 1051 ft 133 kts 44°
2026-05-05 12:19 55.83546 -4.50118 891 ft 122 kts 48°
2026-05-05 12:19 55.84125 -4.49010 709 ft 119 kts 46°
2026-05-05 12:19 55.84704 -4.47954 531 ft 120 kts 45°
2026-05-05 12:20 55.85279 -4.46900 365 ft 118 kts 45°
2026-05-05 12:20 55.85846 -4.45848 176 ft 118 kts 47°
2026-05-05 12:20 55.86420 -4.44773 51 ft 113 kts 46°
2026-05-05 12:20 55.86915 -4.43851 29 ft 98 kts 46°
2026-05-05 12:21 55.87221 -4.43277 29 ft 29 kts 47°
2026-05-05 12:21 55.87377 -4.42987 29 ft 35 kts 46°
2026-05-05 12:21 55.87551 -4.42652 29 ft 37 kts 47°
2026-05-05 12:21 55.87709 -4.42366 29 ft 22 kts 46°
2026-05-05 12:22 55.87746 -4.42241 29 ft 12 kts 110°
2026-05-05 12:22 55.87688 -4.42162 29 ft 12 kts 158°
2026-05-05 12:22 55.87604 -4.42194 29 ft 14 kts 216°
2026-05-05 12:22 55.87528 -4.42334 29 ft 17 kts 226°
2026-05-05 12:23 55.87437 -4.42503 29 ft 21 kts 224°
2026-05-05 12:23 55.87308 -4.42645 29 ft 23 kts 200°
2026-05-05 12:23 55.87153 -4.42757 29 ft 25 kts 201°
2026-05-05 12:23 55.86997 -4.42853 29 ft 23 kts 200°
2026-05-05 12:24 55.86873 -4.42965 29 ft 18 kts 210°
2026-05-05 12:24 55.86825 -4.43172 29 ft 20 kts 254°
2026-05-05 12:24 55.86784 -4.43430 29 ft 23 kts 253°
2026-05-05 12:24 55.86775 -4.43485 29 ft 0 kts 253°
2026-05-05 12:29 55.86775 -4.43484 29 ft 0 kts 253°
2026-05-05 12:31 55.86761 -4.43567 29 ft 16 kts 253°
2026-05-05 12:31 55.86744 -4.43669 29 ft 8 kts 253°
2026-05-05 12:32 55.86715 -4.43776 29 ft 16 kts 223°
2026-05-05 12:32 55.86698 -4.43861 29 ft 11 kts 280°
2026-05-05 12:32 55.86648 -4.43916 29 ft 15 kts 224°
2026-05-05 12:32 55.86585 -4.44008 29 ft 5 kts 211°
2026-05-05 12:33 55.86503 -4.43981 29 ft 15 kts 168°
2026-05-05 12:33 55.86466 -4.43952 29 ft 6 kts 152°
2026-05-05 12:33 55.86467 -4.43954 29 ft 0 kts 155°